Regional Weather Roundup
Issued by NWS

Home | Current Version | Previous Version | Text Only | Print | Product List | Glossary Off
Versions: 1 2 3 4 5 6 7 8 9 10 11 12 13 14 15 16 17 18 19 20 21 22 23 24 25 26 27 28 29 30 31 32 33 34 35 36 37 38 39 40 41 42 43 44 45 46 47 48 49 50

000
ASUS43 KIND 040659
RWRIN

WEATHER ROUNDUP FOR INDIANA
NATIONAL WEATHER SERVICE INDIANAPOLIS IN
300 AM EDT FRI SEP 04 2015

NOTE: "FAIR" INDICATES FEW OR NO CLOUDS BELOW 12,000 FEET WITH NO
SIGNIFICANT WEATHER AND/OR OBSTRUCTIONS TO VISIBILITY.

* - STATION DOES NOT REPORT WEATHER SUCH AS PRECIPITATION OR FOG.

+ - STATION NOT QUALITY CONTROLLED BY THE NATIONAL WEATHER SERVICE.
    USE DATA WITH CAUTION...ESPECIALLY DEWPOINT AND RELATIVE
    HUMIDITY OBSERVATIONS.

INZ001>003-010>013-019-020-040800-
NORTHWEST INDIANA

CITY           SKY/WX    TMP DP  RH WIND       PRES   REMARKS
RENSSELAER +   CLEAR     70  70 100 N5        29.96S FOG

$$

LMZ046-743>745-040800-
SOUTHERN LAKE MICHIGAN

STATION/POSITION TIME  TEMP    WIND        PRES    WAVE
                       AIR SEA DIR/SP/G            HT
                 (UTC) (F)     (DEG/KT/KT) (MB)    (FT)
BURNS HARBOR     0600   72      40/  7/  8 1015.2R
MICHIGAN CITY    0600   71     360/  8/  9   N/A
5NW MICH CITY    0600   72 73   40/  6/  8   N/A     2

$$

INZ004-005-014>016-021>024-040800-
NORTH CENTRAL INDIANA

CITY           SKY/WX    TMP DP  RH WIND       PRES   REMARKS
GOSHEN         PTCLDY    70  69  97 NW3       29.95S FOG
SOUTH BEND     CLEAR     68  66  93 CALM      29.97R

$$

INZ006>009-017-018-025>027-040800-
NORTHEAST INDIANA

CITY           SKY/WX    TMP DP  RH WIND       PRES   REMARKS
ANGOLA *+      CLEAR     72  64  78 CALM      29.95F
FORT WAYNE     MOCLDY    71  67  87 NW5       29.96R

$$

INZ028-029-035-036-043>045-051>053-040800-
WEST CENTRAL INDIANA

CITY           SKY/WX    TMP DP  RH WIND       PRES   REMARKS
CRAWFORDSVL +  MOCLDY    66  66 100 CALM      29.97S
GREENCASTLE +  CLEAR     68  63  83 CALM      29.98S
LAFAYETTE      CLEAR     70  68  93 CALM      29.94F
TERRE HAUTE    CLEAR     68  65  90 CALM      29.97S

$$

INZ030>032-037>040-046>048-054>057-064-065-040800-
CENTRAL INDIANA

CITY           SKY/WX    TMP DP  RH WIND       PRES   REMARKS
FRANKFORT +    CLEAR    N/A N/A N/A CALM      29.98F
GREENWOOD *+   CLEAR     68  64  88 CALM      29.99R
INDIANAPOLIS   CLEAR     73  67  81 SW6       29.97R
-EAGLE CREEK   CLEAR     74  67  78 CALM      29.97R
KOKOMO *+      CLEAR     73  64  73 W7        29.96S
MT COMFORT *+  CLEAR     68 N/A N/A S3        29.99R
SHELBYVILLE    CLEAR     69  65  86 CALM      29.97R
ZIONSVILLE +   CLEAR     67  64  88 CALM      29.98S

$$

INZ033-034-041-042-049-050-058-059-040800-
EAST CENTRAL INDIANA

CITY           SKY/WX    TMP DP  RH WIND       PRES   REMARKS
MUNCIE         CLEAR     72  66  81 SW6       29.97S

$$

INZ060-061-067>069-081>083-085>088-040800-
SOUTHWEST INDIANA

CITY           SKY/WX    TMP DP  RH WIND       PRES   REMARKS
EVANSVILLE     CLEAR     71  69  93 CALM      29.97F FOG
HUNTINGBURG *+ CLEAR     68  64  88 SE3       29.98S

$$

INZ062-063-066-070>080-084-089>092-040800-
SOUTH CENTRAL AND SOUTHEAST INDIANA

CITY           SKY/WX    TMP DP  RH WIND       PRES   REMARKS
BLOOMINGTON    CLEAR     68  65  90 CALM      29.98S
MADISON *+     CLEAR     68  64  88 CALM      30.01S
SEYMOUR +      FOG       66  66 100 CALM      29.98R VSB 1

$$



USA.gov is the U.S. government's official web portal to all federal, state and local government web resources and services.